DW7144 Weather Reports


time (UTC)temp
C
wind
direction
speed
KPH
gust
KPH
rain 1hr
cm
rain 24hr
cm
rain mn
cm
humidity
%
barometer
mb
20260510205403 6 39 1.6 4.8 0.00 0.00 0.00 70 1012.4
20260510204503 6 39 3.2 4.8 0.00 0.00 0.00 70 1012.5
20260510203603 7 39 1.6 4.8 0.00 0.00 0.00 69 1012.5
20260510202703 7 39 3.2 8.0 0.00 0.00 0.00 69 1012.5
20260510201803 7 39 4.8 12.9 0.00 0.00 0.00 67 1012.5
20260510200924 7 38 3.2 12.9 0.00 0.00 0.00 66 1012.6
20260510200003 7 38 4.8 14.5 0.00 0.00 0.00 65 1012.7
20260510195403 8 38 6.4 14.5 0.00 0.00 0.00 65 1012.7
20260510194503 8 39 4.8 11.3 0.00 0.00 0.00 63 1012.7
20260510193603 8 32 8.0 16.1 0.00 0.00 0.00 61 1012.7
20260510192724 8 18 6.4 16.1 0.00 0.00 0.00 61 1012.8
20260510191803 8 43 8.0 17.7 0.00 0.00 0.00 60 1012.8
20260510190924 9 31 9.7 24.1 0.00 0.00 0.00 59 1012.9
20260510190003 9 34 8.0 17.7 0.00 0.00 0.00 59 1012.8
20260510185403 9 44 8.0 17.7 0.00 0.00 0.00 58 1012.8
20260510184503 10 46 9.7 24.1 0.00 0.00 0.00 58 1012.9
20260510183603 10 34 9.7 20.9 0.00 0.00 0.00 58 1012.9
20260510182703 10 52 8.0 19.3 0.00 0.00 0.00 58 1012.8
20260510181803 10 42 9.7 20.9 0.00 0.00 0.00 58 1012.9
20260510180924 10 41 9.7 24.1 0.00 0.00 0.00 57 1012.9
20260510180003 10 23 9.7 19.3 0.00 0.00 0.00 57 1012.8
20260510175403 10 26 9.7 19.3 0.00 0.00 0.00 57 1012.8
20260510174524 10 37 11.3 22.5 0.00 0.00 0.00 56 1012.9
20260510173624 11 54 11.3 24.1 0.00 0.00 0.00 55 1012.9
20260510172703 11 32 9.7 19.3 0.00 0.00 0.00 55 1013.0
20260510171803 11 19 9.7 20.9 0.00 0.00 0.00 55 1013.1
20260510170903 11 37 9.7 22.5 0.00 0.00 0.00 56 1013.1
20260510170003 11 36 11.3 22.5 0.00 0.00 0.00 56 1013.2
20260510165403 11 44 12.9 27.4 0.00 0.00 0.00 56 1013.3
20260510164503 11 42 8.0 19.3 0.00 0.00 0.00 56 1013.3
20260510163603 11 27 9.7 22.5 0.00 0.00 0.00 56 1013.5
20260510162703 11 42 11.3 24.1 0.00 0.00 0.00 54 1013.6
20260510161803 12 40 11.3 25.7 0.00 0.00 0.00 54 1013.5
20260510160903 12 34 11.3 24.1 0.00 0.00 0.00 54 1013.7